Regional Weather Roundup
Issued by NWS

Home | Current Version | Previous Version | Graphics & Text | Print | Product List | Glossary On
Versions: 1 2 3 4 5 6 7 8 9 10 11 12 13 14 15 16 17 18 19 20 21 22 23 24 25 26 27 28 29 30 31 32 33 34 35 36 37 38 39 40 41 42 43 44 45 46 47 48 49 50
000
ASUS43 KMKX 260110
RWRWI

WISCONSIN REGIONAL WEATHER ROUNDUP
NATIONAL WEATHER SERVICE MILWAUKEE/SULLIVAN WI
800 PM CDT MON MAY 25 2015

NOTE: "FAIR" INDICATES FEW OR NO CLOUDS BELOW 12,000 FEET WITH NO
SIGNIFICANT WEATHER AND/OR OBSTRUCTIONS TO VISIBILITY.

WIZ001-002-006>008-014>016-023>028-260200-
NORTHWEST WISCONSIN

CITY           SKY/WX    TMP DP  RH WIND       PRES   REMARKS
SUPERIOR ARPT  CLOUDY    45  44  99 E5        29.76R
ASHLAND        CLOUDY    52  52 100 NW6       29.75R
HAYWARD        MOCLDY    65  57  75 SW8       29.73S
SIREN          CLOUDY    66  58  73 SW7       29.72F
CUMBERLAND     CLOUDY    66  57  72 SW8       29.74S
RICE LAKE      MOCLDY    68  57  68 SW3       29.75F
CHETEK         MOCLDY    67  60  77 CALM      29.75S
LADYSMITH      MOCLDY    66  59  78 CALM      29.77S
EAU CLAIRE     MOCLDY    66  63  90 SW3       29.75S
MENOMONIE      MOCLDY    69  61  74 S9        29.75R
NEW RICHMOND   PTCLDY    67  58  70 SW7       29.74S
OSCEOLA        MOCLDY    68  58  71 SW7       29.76S
$$

WIZ003>005-009-010-017-018-260200-
NORTH CENTRAL WISCONSIN

CITY           SKY/WX    TMP DP  RH WIND       PRES   REMARKS
MANITOWISH WTR PTCLDY    63  58  84 SW7       29.75S
ARBOR VITAE    PTCLDY    65  57  74 W9        29.76S
WOODRUFF       PTCLDY    65  57  74 W9        29.76S
RHINELANDER    PTCLDY    66  56  70 W8        29.78R
EAGLE RIVER    PTCLDY    65  56  72 W7        29.76R
LAND O LAKES   PTCLDY    65  57  73 SW9       29.77R
PHILLIPS       MOCLDY    65  58  77 SW9       29.76R
TOMAHAWK       PTCLDY    65  57  75 CALM      29.78R
MEDFORD        DRIZZLE   63  60  92 SW7       29.78R
MERRILL        CLOUDY    67  63  85 S5        29.79R
$$

WIZ029-030-035-036-043>047-260200-
CENTRAL WISCONSIN

CITY           SKY/WX    TMP DP  RH WIND       PRES   REMARKS
WAUSAU         MOCLDY    66  56  70 NW6       29.76S
MOSINEE        NOT AVBL
MARSHFIELD     MOCLDY    68  58  70 SW9       29.79S
STEVENS POINT  CLOUDY    64  60  85 W5        29.80S
WAUPACA        LGT RAIN  66  64  91 W9        29.81R
WAUTOMA        NOT AVBL
WISC RAPIDS    MOCLDY    64  61  90 S3        29.80F
CAMP DOUGLAS   NOT AVBL
$$

WIZ011>013-019>022-031-037>040-048>050-260200-
NORTHEAST WISCONSIN

CITY           SKY/WX    TMP DP  RH WIND       PRES   REMARKS
ANTIGO         CLOUDY    66  61  84 SW5       29.80R
SHAWANO        RAIN      71  63  75 SW3       29.78R
OCONTO         MOCLDY    73  63  69 CALM      29.76S
STURGEON BAY   MOCLDY    72  61  68 SW9       29.81R
GREEN BAY      MOCLDY    74  62  66 SW7       29.79R
MANITOWOC      NOT AVBL
APPLETON       MOCLDY    73  61  64 SW7       29.81R
CLINTONVILLE   LGT RAIN  66  59  77 SW16G30   29.81R
OSHKOSH        CLEAR     74  60  61 SW10      29.81R
$$

WIZ032>034-041-042-053>061-260200-
SOUTHWEST WISCONSIN

CITY           SKY/WX    TMP DP  RH WIND       PRES   REMARKS
LA CROSSE      CLEAR     73  64  73 CALM      29.76S
SPARTA         CLEAR     68  60  75 CALM      29.78F
VIROQUA        CLEAR     73  60  62 S10       29.81S
BOSCOBEL       PTCLDY    76  61  59 S8        29.81R
PRAIRIE DU CHI PTCLDY    76  59  55 S8        29.80R
PLATTEVILLE    PTCLDY    73  64  71 S13G21    29.85S
$$

WIZ056-057-062-063-064-067-068-260200-
SOUTH CENTRAL WISCONSIN

CITY           SKY/WX    TMP DP  RH WIND       PRES   REMARKS
REEDSBURG      PTCLDY    74  62  65 SW13      29.80S
BARABOO/DELLS  PTCLDY    73  59  61 SW9       29.81S
LONE ROCK      NOT AVBL
MINERAL POINT  PTCLDY    73  61  64 S12       29.85S
MADISON        MOCLDY    75  59  57 S12G17    29.84S
MIDDLETON      PTCLDY    76  57  50 SW10G17   29.85S
WATERTOWN      PTCLDY    73  60  63 SW10      29.85R
MONROE         PTCLDY    73  61  64 SW14      29.87R
JANESVILLE     CLEAR     75  59  57 SW12      29.87R
$$

WIZ051-052-058>065-066-070>072-260200-
SOUTHEAST WISCONSIN

CITY           SKY/WX    TMP DP  RH WIND       PRES   REMARKS
MILWAUKEE      PTCLDY    75  61  61 SW10      29.86F
WAUKESHA       PTCLDY    72  59  64 S12       29.88F
MILWAUKEE/TIMM PTCLDY    75  57  53 SW12G21   29.86F
RACINE         PTCLDY    75  60  59 SW10      29.89F
BURLINGTON     CLEAR     73  60  64 S15       29.87F
KENOSHA        PTCLDY    75  61  61 SW14      29.88F
FOND DU LAC    CLEAR     73  61  65 S10       29.82S
SHEBOYGAN      CLEAR     73  61  65 SW12      29.83S
WEST BEND      CLEAR     73  57  56 SW12G21   29.85S
JUNEAU         CLEAR     73  61  66 S17       29.85S
$$

LSZ147-162-260200-
LAKE SUPERIOR

STATION/POSITION TIME  TEMP    WIND        PRES    WAVE
                       AIR SEA DIR/SP/G            HT/PER
                 (UTC) (F)     (DEG/KT/KT) (MB)    (FT/S)
W MID LAKE BUOY  2350   40 36   30/ 10/ 12 1071.0R   3/ 5
DEVILS ISLAND    0000   43     100/  5/  6 1078.0R
PORT WING        0000   43      30/  1/  3 1078.0
SAXON HARBOR     0000   47        CALM     1071.0R
$$

LMZ867-665-643>646-260200-
LAKE MICHIGAN

STATION/POSITION TIME  TEMP    WIND        PRES    WAVE
                       AIR SEA DIR/SP/G            HT/PER
                 (UTC) (F)     (DEG/KT/KT) (MB)    (FT/S)
CHAMBERS ISLAND  0000   70     180/  3/  9 1078.0R
N MID LAKE BUOY  2350   42 37  200/ 16/ 17 1080.0R   4/ 5
NORTHPORT PIER   0000   58     150/  5/  6 1078.0R
SISTER BAY       0003   72     240/ 10/ 12   N/A
KEWAUNEE LAKESHO 0000   76     220/ 10/ 16 1084.0R
SHEBOYGAN LAKESH 0000   71     190/ 15/ 17   N/A
PORT WASHINGTON  0000   79     200/ 10/ 15   N/A
ATWATER BUOY     0000   72 45  200/ 17/ 21   N/A
MILWAUKEE LAKESH 0000   75     220/ 14/ 17   N/A
S MID LAKE BUOY  2350   48 38  200/ 10/ 12   N/A     1/ 4
$$

TC  - TEMPERATURE IN CELSIUS
VSB - VISIBILITY IN STATUTE MILES
WCI - WIND CHILL INDEX
HX  - HEAT INDEX



USA.gov is the U.S. government's official web portal to all federal, state and local government web resources and services.